,,Stat6,,Stat2,,Stat8,,Stat9,,Stat10,,Wind1,,Wind1,
time,status,PA1M_AVG,status,PR1M_SUM,status,RH1M_AVG,status,SR1M_AVG,status,TA1M_AVG,status,W1dAve1m,status,W1sAve1m,
2009-04-16, 00:00:00,VALID,918.975,VALID,0,VALID,99.5819,VALID,0.0169808,VALID,19.5625,VALID,32,VALID,0,
2009-04-16, 00:01:00,VALID,918.964,VALID,0,VALID,99.7625,VALID,0.0169808,VALID,19.5496,VALID,32,VALID,0,
2009-04-16, 00:02:00,VALID,918.949,VALID,0,VALID,99.9865,VALID,0,VALID,19.5725,VALID,32,VALID,0,
2009-04-16, 00:03:00,VALID,918.926,VALID,0,VALID,100,VALID,0.0169808,VALID,19.5685,VALID,32,VALID,0,
2009-04-16, 00:04:00,VALID,918.909,VALID,0,VALID,100,VALID,0.0509425,VALID,19.5393,VALID,32,VALID,0,
2009-04-16, 00:05:00,VALID,918.88,VALID,0,VALID,99.9906,VALID,0.0169808,VALID,19.5303,VALID,32,VALID,0,
2009-04-16, 00:06:00,VALID,918.854,VALID,0,VALID,99.9926,VALID,0.0169808,VALID,19.5144,VALID,32,VALID,0,
2009-04-16, 00:07:00,VALID,918.83,VALID,0,VALID,100,VALID,-0.0339617,VALID,19.5318,VALID,32,VALID,0,
2009-04-16, 00:08:00,VALID,918.805,VALID,0,VALID,100,VALID,-0.0679233,VALID,19.548,VALID,32,VALID,0,
2009-04-16, 00:09:00,VALID,918.789,VALID,0,VALID,99.9919,VALID,-0.0169808,VALID,19.5316,VALID,32,VALID,0,
2009-04-16, 00:10:00,VALID,918.793,VALID,0,VALID,99.9095,VALID,-0.0679233,VALID,19.5351,VALID,32,VALID,0,
2009-04-16, 00:11:00,VALID,918.777,VALID,0,VALID,99.6773,VALID,-0.0339617,VALID,19.5256,VALID,32,VALID,0,
2009-04-16, 00:12:00,VALID,918.767,VALID,0,VALID,99.8006,VALID,-0.0169808,VALID,19.5346,VALID,32,VALID,0,
2009-04-16, 00:13:00,VALID,918.765,VALID,0,VALID,99.8133,VALID,-0.0339617,VALID,19.5216,VALID,32,VALID,0,
2009-04-16, 00:14:00,VALID,918.763,VALID,0,VALID,99.9418,VALID,-0.0339617,VALID,19.5186,VALID,32,VALID,0,
2009-04-16, 00:15:00,VALID,918.755,VALID,0,VALID,99.8159,VALID,-0.0679233,VALID,19.4991,VALID,32,VALID,0,
2009-04-16, 00:16:00,VALID,918.741,VALID,0,VALID,99.6735,VALID,-0.0169808,VALID,19.4864,VALID,32,VALID,0,
2009-04-16, 00:17:00,VALID,918.735,VALID,0,VALID,99.6989,VALID,-0.0339617,VALID,19.4931,VALID,32,VALID,0,
2009-04-16, 00:18:00,VALID,918.721,VALID,0,VALID,99.8795,VALID,-0.0339617,VALID,19.4727,VALID,32,VALID,0,
2009-04-16, 00:19:00,VALID,918.692,VALID,0,VALID,99.9629,VALID,-0.0169808,VALID,19.4405,VALID,32,VALID,0,
2009-04-16, 00:20:00,VALID,918.684,VALID,0,VALID,100,VALID,-0.0509425,VALID,19.427,VALID,32,VALID,0,
2009-04-16, 00:21:00,VALID,918.66,VALID,0,VALID,100,VALID,-0.0679233,VALID,19.4475,VALID,32,VALID,0,
2009-04-16, 00:22:00,VALID,918.63,VALID,0,VALID,99.9588,VALID,-0.0169808,VALID,19.4308,VALID,26,VALID,0,
2009-04-16, 00:23:00,VALID,918.61,VALID,0,VALID,99.8286,VALID,-0.0169808,VALID,19.4342,VALID,22,VALID,0,
2009-04-16, 00:24:00,VALID,918.599,VALID,0,VALID,99.8349,VALID,-0.0339617,VALID,19.4667,VALID,20,VALID,0,
2009-04-16, 00:25:00,VALID,918.59,VALID,0,VALID,99.7625,VALID,-0.0339617,VALID,19.4764,VALID,15,VALID,0.111192,
2009-04-16, 00:26:00,VALID,918.575,VALID,0,VALID,99.7141,VALID,-0.0339617,VALID,19.4984,VALID,13,VALID,0.00228659,
2009-04-16, 00:27:00,VALID,918.559,VALID,0,VALID,99.6239,VALID,0,VALID,19.5276,VALID,14,VALID,0,
2009-04-16, 00:28:00,VALID,918.548,VALID,0,VALID,99.5043,VALID,0,VALID,19.563,VALID,16,VALID,0,
2009-04-16, 00:29:00,VALID,918.53,VALID,0,VALID,99.4408,VALID,-0.0169808,VALID,19.589,VALID,16,VALID,0,
2009-04-16, 00:30:00,VALID,918.508,VALID,0,VALID,99.3098,VALID,0,VALID,19.6092,VALID,16,VALID,0,
2009-04-16, 00:31:00,VALID,918.487,VALID,0,VALID,99.3517,VALID,0.0169808,VALID,19.6214,VALID,16,VALID,0,
2009-04-16, 00:32:00,VALID,918.461,VALID,0,VALID,99.4217,VALID,0,VALID,19.6636,VALID,16,VALID,0,
2009-04-16, 00:33:00,VALID,918.436,VALID,0,VALID,99.3454,VALID,0,VALID,19.6798,VALID,16,VALID,0,
2009-04-16, 00:34:00,VALID,918.422,VALID,0,VALID,99.4064,VALID,0.0169808,VALID,19.6766,VALID,16,VALID,0,
2009-04-16, 00:35:00,VALID,918.407,VALID,0,VALID,99.4191,VALID,0,VALID,19.6798,VALID,327,VALID,0,
2009-04-16, 00:36:00,VALID,918.383,VALID,0,VALID,99.3962,VALID,0,VALID,19.6833,VALID,263,VALID,0,
2009-04-16, 00:37:00,VALID,918.349,VALID,0,VALID,99.4268,VALID,-0.0339617,VALID,19.7058,VALID,285,VALID,0,
2009-04-16, 00:38:00,VALID,918.32,VALID,0,VALID,99.4496,VALID,-0.0509425,VALID,19.7128,INVALID,360,VALID,0,
2009-04-16, 00:39:00,VALID,918.297,VALID,0,VALID,99.4649,VALID,-0.0339617,VALID,19.6898,INVALID,360,VALID,0,
2009-04-16, 00:40:00,VALID,918.309,VALID,0,VALID,99.6671,VALID,-0.0339617,VALID,19.6676,INVALID,360,VALID,0,
2009-04-16, 00:41:00,VALID,918.297,VALID,0,VALID,99.6137,VALID,-0.0339617,VALID,19.6449,INVALID,360,VALID,0,
2009-04-16, 00:42:00,VALID,918.281,VALID,0,VALID,99.7396,VALID,-0.0339617,VALID,19.6154,INVALID,360,VALID,0,
2009-04-16, 00:43:00,VALID,918.288,VALID,0,VALID,99.8477,VALID,-0.0169808,VALID,19.606,INVALID,360,VALID,0,
2009-04-16, 00:44:00,VALID,918.29,VALID,0,VALID,99.8324,VALID,-0.0169808,VALID,19.6022,VALID,338,VALID,0,
2009-04-16, 00:45:00,VALID,918.276,VALID,0,VALID,99.8337,VALID,0,VALID,19.589,INVALID,360,VALID,0,
2009-04-16, 00:46:00,VALID,918.277,VALID,0,VALID,99.7065,VALID,-0.0169808,VALID,19.5608,INVALID,360,VALID,0,
2009-04-16, 00:47:00,VALID,918.271,VALID,0,VALID,99.7434,VALID,-0.0169808,VALID,19.5144,VALID,338,VALID,0,
2009-04-16, 00:48:00,VALID,918.26,VALID,0,VALID,99.8171,VALID,0,VALID,19.5051,INVALID,360,VALID,0,
2009-04-16, 00:49:00,VALID,918.265,VALID,0,VALID,99.9827,VALID,-0.0169808,VALID,19.4919,VALID,338,VALID,0,
2009-04-16, 00:50:00,VALID,918.253,VALID,0,VALID,99.9845,VALID,-0.0339617,VALID,19.4894,INVALID,360,VALID,0,
2009-04-16, 00:51:00,VALID,918.24,VALID,0,VALID,100,VALID,0,VALID,19.4722,INVALID,360,VALID,0,
2009-04-16, 00:52:00,VALID,918.225,VALID,0,VALID,100,VALID,0.0849042,VALID,19.4485,VALID,338,VALID,0,
2009-04-16, 00:53:00,VALID,918.229,VALID,0,VALID,100,VALID,0.0679233,VALID,19.4457,INVALID,360,VALID,0,
2009-04-16, 00:54:00,VALID,918.225,VALID,0,VALID,100,VALID,0.0849042,VALID,19.429,VALID,338,VALID,0,
2009-04-16, 00:55:00,VALID,918.198,VALID,0,VALID,100,VALID,0.0679233,VALID,19.436,INVALID,360,VALID,0,
2009-04-16, 00:56:00,VALID,918.199,VALID,0,VALID,100,VALID,0.0339617,VALID,19.4358,INVALID,360,VALID,0,
2009-04-16, 00:57:00,VALID,918.168,VALID,0,VALID,100,VALID,0.0679233,VALID,19.455,VALID,338,VALID,0,
2009-04-16, 00:58:00,VALID,918.138,VALID,0,VALID,100,VALID,0.101885,VALID,19.4485,VALID,360,VALID,0,
2009-04-16, 00:59:00,VALID,918.102,VALID,0,VALID,100,VALID,0.0509425,VALID,19.4625,VALID,1,VALID,0,
2009-04-16, 01:00:00,VALID,918.085,VALID,0,VALID,100,VALID,0.0679233,VALID,19.4427,VALID,1,VALID,0,
2009-04-16, 01:01:00,VALID,918.059,VALID,0,VALID,100,VALID,0.0169808,VALID,19.443,VALID,1,VALID,0,
2009-04-16, 01:02:00,VALID,918.021,VALID,0,VALID,100,VALID,0.0169808,VALID,19.4365,VALID,1,VALID,0,
2009-04-16, 01:03:00,VALID,917.993,VALID,0,VALID,100,VALID,0.0339617,VALID,19.4198,VALID,1,VALID,0,
2009-04-16, 01:04:00,VALID,917.979,VALID,0,VALID,100,VALID,0.0509425,VALID,19.4365,VALID,1,VALID,0,
2009-04-16, 01:05:00,VALID,917.951,VALID,0,VALID,100,VALID,0.0849042,VALID,19.4228,VALID,19,VALID,0,
2009-04-16, 01:06:00,VALID,917.918,VALID,0,VALID,100,VALID,0.0679233,VALID,19.4101,VALID,30,VALID,0,
2009-04-16, 01:07:00,VALID,917.905,VALID,0,VALID,100,VALID,-0.0339617,VALID,19.4145,VALID,30,VALID,0,
2009-04-16, 01:08:00,VALID,917.873,VALID,0,VALID,100,VALID,-0.0339617,VALID,19.4011,VALID,30,VALID,0,
2009-04-16, 01:09:00,VALID,917.854,VALID,0,VALID,100,VALID,-0.0509425,VALID,19.4018,VALID,30,VALID,0,
2009-04-16, 01:10:00,VALID,917.815,VALID,0,VALID,100,VALID,-0.0169808,VALID,19.3756,VALID,30,VALID,0,
2009-04-16, 01:11:00,VALID,917.789,VALID,0,VALID,100,VALID,-0.0169808,VALID,19.3694,VALID,30,VALID,0,
2009-04-16, 01:12:00,VALID,917.758,VALID,0,VALID,100,VALID,-0.0169808,VALID,19.3524,VALID,30,VALID,0,
2009-04-16, 01:13:00,VALID,917.734,VALID,0,VALID,100,VALID,-0.0509425,VALID,19.3501,VALID,30,VALID,0,
2009-04-16, 01:14:00,VALID,917.702,VALID,0,VALID,100,VALID,-0.0339617,VALID,19.3402,VALID,30,VALID,0,
2009-04-16, 01:15:00,VALID,917.673,VALID,0,VALID,100,VALID,-0.0679233,VALID,19.3334,VALID,21,VALID,0,
2009-04-16, 01:16:00,VALID,917.631,VALID,0,VALID,100,VALID,-0.0509425,VALID,19.3337,VALID,22,VALID,0,
2009-04-16, 01:17:00,VALID,917.627,VALID,0,VALID,100,VALID,-0.0679233,VALID,19.3436,VALID,22,VALID,0,
2009-04-16, 01:18:00,VALID,917.621,VALID,0,VALID,100,VALID,-0.0339617,VALID,19.3332,VALID,36,VALID,0,
2009-04-16, 01:19:00,VALID,917.623,VALID,0,VALID,100,VALID,-0.0339617,VALID,19.3566,VALID,41,VALID,0,
2009-04-16, 01:20:00,VALID,917.615,VALID,0,VALID,100,VALID,-0.0679233,VALID,19.3696,VALID,38,VALID,0,
2009-04-16, 01:21:00,VALID,917.618,VALID,0,VALID,100,VALID,-0.0679233,VALID,19.3629,VALID,17,VALID,0,
2009-04-16, 01:22:00,VALID,917.615,VALID,0,VALID,100,VALID,-0.101885,VALID,19.3828,VALID,28,VALID,0,
2009-04-16, 01:23:00,VALID,917.616,VALID,0,VALID,100,VALID,-0.0679233,VALID,19.3788,VALID,34,VALID,0,
2009-04-16, 01:24:00,VALID,917.62,VALID,0,VALID,100,VALID,-0.0679233,VALID,19.3976,VALID,34,VALID,0,
2009-04-16, 01:25:00,VALID,917.634,VALID,0,VALID,100,VALID,-0.0339617,VALID,19.4345,VALID,34,VALID,0,
2009-04-16, 01:26:00,VALID,917.638,VALID,0,VALID,100,VALID,-0.0169808,VALID,19.4375,VALID,34,VALID,0,
2009-04-16, 01:27:00,VALID,917.65,VALID,0,VALID,100,VALID,-0.0339617,VALID,19.4243,VALID,34,VALID,0,
2009-04-16, 01:28:00,VALID,917.652,VALID,0,VALID,100,VALID,-0.0509425,VALID,19.4013,VALID,34,VALID,0,
2009-04-16, 01:29:00,VALID,917.644,VALID,0,VALID,100,VALID,-0.0679233,VALID,19.3848,VALID,34,VALID,0,
2009-04-16, 01:30:00,VALID,917.65,VALID,0,VALID,100,VALID,-0.0849042,VALID,19.3661,VALID,34,VALID,0,
2009-04-16, 01:31:00,VALID,917.645,VALID,0,VALID,100,VALID,-0.0679233,VALID,19.3429,VALID,34,VALID,0,
2009-04-16, 01:32:00,VALID,917.62,VALID,0,VALID,100,VALID,-0.0339617,VALID,19.3436,VALID,35,VALID,0,
2009-04-16, 01:33:00,VALID,917.61,VALID,0,VALID,100,VALID,-0.0849042,VALID,19.3364,VALID,35,VALID,0,
2009-04-16, 01:34:00,VALID,917.583,VALID,0,VALID,100,VALID,-0.0509425,VALID,19.3404,VALID,35,VALID,0,
2009-04-16, 01:35:00,VALID,917.566,VALID,0,VALID,100,VALID,-0.0679233,VALID,19.3329,VALID,35,VALID,0,
2009-04-16, 01:36:00,VALID,917.565,VALID,0,VALID,100,VALID,-0.0169808,VALID,19.3364,VALID,35,VALID,0,
2009-04-16, 01:37:00,VALID,917.579,VALID,0,VALID,100,VALID,-0.0509425,VALID,19.3362,VALID,35,VALID,0,
2009-04-16, 01:38:00,VALID,917.589,VALID,0,VALID,100,VALID,-0.0339617,VALID,19.3399,VALID,35,VALID,0,
2009-04-16, 01:39:00,VALID,917.597,VALID,0,VALID,100,VALID,-0.0509425,VALID,19.3267,VALID,35,VALID,0,
2009-04-16, 01:40:00,VALID,917.625,VALID,0,VALID,100,VALID,-0.0339617,VALID,19.3075,VALID,35,VALID,0,
2009-04-16, 01:41:00,VALID,917.63,VALID,0,VALID,100,VALID,-0.0509425,VALID,19.2972,VALID,35,VALID,0,
2009-04-16, 01:42:00,VALID,917.654,VALID,0,VALID,100,VALID,-0.0339617,VALID,19.2783,VALID,35,VALID,0,
2009-04-16, 01:43:00,VALID,917.657,VALID,0,VALID,100,VALID,-0.0339617,VALID,19.2653,VALID,35,VALID,0,
2009-04-16, 01:44:00,VALID,917.668,VALID,0,VALID,100,VALID,-0.0509425,VALID,19.262,VALID,35,VALID,0,
2009-04-16, 01:45:00,VALID,917.665,VALID,0,VALID,100,VALID,-0.0509425,VALID,19.265,VALID,35,VALID,0,
2009-04-16, 01:46:00,VALID,917.667,VALID,0,VALID,100,VALID,-0.0509425,VALID,19.2685,VALID,35,VALID,0,
2009-04-16, 01:47:00,VALID,917.666,VALID,0,VALID,100,VALID,-0.0679233,VALID,19.2783,VALID,35,VALID,0,
2009-04-16, 01:48:00,VALID,917.656,VALID,0,VALID,100,VALID,-0.0509425,VALID,19.2885,VALID,35,VALID,0,
2009-04-16, 01:49:00,VALID,917.652,VALID,0,VALID,100,VALID,-0.0509425,VALID,19.2848,VALID,35,VALID,0,
2009-04-16, 01:50:00,VALID,917.653,VALID,0,VALID,100,VALID,-0.101885,VALID,19.2848,VALID,35,VALID,0,
2009-04-16, 01:51:00,VALID,917.653,VALID,0,VALID,100,VALID,-0.0169808,VALID,19.2885,VALID,35,VALID,0,
2009-04-16, 01:52:00,VALID,917.66,VALID,0,VALID,100,VALID,0,VALID,19.28,VALID,35,VALID,0,
2009-04-16, 01:53:00,VALID,917.651,VALID,0,VALID,100,VALID,0,VALID,19.3032,VALID,35,VALID,0,
2009-04-16, 01:54:00,VALID,917.651,VALID,0,VALID,100,VALID,0.0509425,VALID,19.3062,VALID,35,VALID,0,
2009-04-16, 01:55:00,VALID,917.642,VALID,0,VALID,100,VALID,0.0509425,VALID,19.2998,VALID,35,VALID,0,
2009-04-16, 01:56:00,VALID,917.633,VALID,0,VALID,100,VALID,0.0169808,VALID,19.2833,VALID,35,VALID,0,
2009-04-16, 01:57:00,VALID,917.633,VALID,0,VALID,100,VALID,0,VALID,19.2578,VALID,35,VALID,0,
2009-04-16, 01:58:00,VALID,917.624,VALID,0,VALID,100,VALID,0,VALID,19.2351,VALID,35,VALID,0,
2009-04-16, 01:59:00,VALID,917.601,VALID,0,VALID,100,VALID,0,VALID,19.2286,VALID,35,VALID,0,
2009-04-16, 02:00:00,VALID,917.58,VALID,0,VALID,100,VALID,0,VALID,19.2418,VALID,35,VALID,0,
2009-04-16, 02:01:00,VALID,917.569,VALID,0,VALID,100,VALID,0,VALID,19.2643,VALID,315,VALID,0,
2009-04-16, 02:02:00,VALID,917.545,VALID,0,VALID,100,VALID,0.0169808,VALID,19.287,VALID,291,VALID,0,
2009-04-16, 02:03:00,VALID,917.526,VALID,0,VALID,100,VALID,0.0339617,VALID,19.2801,VALID,289,VALID,0,
2009-04-16, 02:04:00,VALID,917.514,VALID,0,VALID,100,VALID,0.0339617,VALID,19.2965,VALID,232,VALID,0,
2009-04-16, 02:05:00,VALID,917.497,VALID,0,VALID,100,VALID,0,VALID,19.3285,VALID,226,VALID,0,
2009-04-16, 02:06:00,VALID,917.469,VALID,0,VALID,100,VALID,0.0169808,VALID,19.3227,VALID,227,VALID,0,
2009-04-16, 02:07:00,VALID,917.45,VALID,0,VALID,100,VALID,0.0339617,VALID,19.2995,VALID,3,VALID,0,
2009-04-16, 02:08:00,VALID,917.451,VALID,0,VALID,100,VALID,0.0169808,VALID,19.3192,VALID,21,VALID,0,
2009-04-16, 02:09:00,VALID,917.434,VALID,0,VALID,100,VALID,0.0339617,VALID,19.3487,VALID,8,VALID,0,
2009-04-16, 02:10:00,VALID,917.417,VALID,0,VALID,100,VALID,0,VALID,19.3549,VALID,21,VALID,0,
2009-04-16, 02:11:00,VALID,917.409,VALID,0,VALID,100,VALID,0,VALID,19.3651,VALID,30,VALID,0,
2009-04-16, 02:12:00,VALID,917.393,VALID,0,VALID,100,VALID,0,VALID,19.3477,VALID,45,VALID,0,
2009-04-16, 02:13:00,VALID,917.383,VALID,0,VALID,100,VALID,0,VALID,19.3744,VALID,40,VALID,0,
2009-04-16, 02:14:00,VALID,917.386,VALID,0,VALID,100,VALID,0.0169808,VALID,19.3929,VALID,51,VALID,0,
2009-04-16, 02:15:00,VALID,917.391,VALID,0,VALID,100,VALID,0.0169808,VALID,19.4068,VALID,51,VALID,0,
2009-04-16, 02:16:00,VALID,917.374,VALID,0,VALID,100,VALID,0,VALID,19.4103,VALID,41,VALID,0,
2009-04-16, 02:17:00,VALID,917.38,VALID,0,VALID,100,VALID,0.0339617,VALID,19.4193,VALID,28,VALID,0,
2009-04-16, 02:18:00,VALID,917.386,VALID,0,VALID,99.9919,VALID,0.0339617,VALID,19.468,VALID,12,VALID,0,
2009-04-16, 02:19:00,VALID,917.382,VALID,0,VALID,99.8248,VALID,0.0679233,VALID,19.5009,VALID,3,VALID,0,
2009-04-16, 02:20:00,VALID,917.391,VALID,0,VALID,99.6366,VALID,0.0679233,VALID,19.4839,VALID,16,VALID,0.0859375,
2009-04-16, 02:21:00,VALID,917.415,VALID,0,VALID,99.5755,VALID,0.0169808,VALID,19.4712,VALID,13,VALID,0.0379192,
2009-04-16, 02:22:00,VALID,917.41,VALID,0,VALID,99.6328,VALID,0.0339617,VALID,19.4642,VALID,359,VALID,0.356585,
2009-04-16, 02:23:00,VALID,917.384,VALID,0,VALID,99.6569,VALID,0.0169808,VALID,19.5009,VALID,349,VALID,0,
2009-04-16, 02:24:00,VALID,917.398,VALID,0,VALID,99.5323,VALID,0,VALID,19.5139,VALID,356,VALID,0.0390625,
2009-04-16, 02:25:00,VALID,917.385,VALID,0,VALID,99.4827,VALID,0.0169808,VALID,19.4972,VALID,356,VALID,0.0479651,
2009-04-16, 02:26:00,VALID,917.362,VALID,0,VALID,99.5132,VALID,0.0339617,VALID,19.4779,VALID,7,VALID,0.0836104,
2009-04-16, 02:27:00,VALID,917.335,VALID,0,VALID,99.5425,VALID,0.0169808,VALID,19.4557,VALID,14,VALID,0,
2009-04-16, 02:28:00,VALID,917.315,VALID,0,VALID,99.5972,VALID,0.0339617,VALID,19.4093,VALID,20,VALID,0,
2009-04-16, 02:29:01,VALID,917.288,VALID,0,VALID,99.8629,VALID,0.0509425,VALID,19.3736,VALID,26,VALID,0.167873,
2009-04-16, 02:30:00,VALID,917.269,VALID,0,VALID,99.9819,VALID,0.0509425,VALID,19.3679,VALID,25,VALID,0.182181,
2009-04-16, 02:31:00,VALID,917.233,VALID,0,VALID,100,VALID,0.0169808,VALID,19.3512,VALID,19,VALID,0.628452,
2009-04-16, 02:32:01,VALID,917.212,VALID,0,VALID,100,VALID,0.0169808,VALID,19.3676,VALID,19,VALID,0.355035,
2009-04-16, 02:33:00,VALID,917.193,VALID,0,VALID,100,VALID,0.0339617,VALID,19.3831,VALID,19,VALID,0,
2009-04-16, 02:34:00,VALID,917.195,VALID,0,VALID,100,VALID,0.0679233,VALID,19.3966,VALID,22,VALID,0.0417799,
2009-04-16, 02:35:01,VALID,917.189,VALID,0,VALID,100,VALID,0.0339617,VALID,19.3933,VALID,357,VALID,0,
2009-04-16, 02:36:00,VALID,917.182,VALID,0,VALID,100,VALID,0.0339617,VALID,19.3996,VALID,355,VALID,0,
2009-04-16, 02:37:01,VALID,917.181,VALID,0,VALID,99.9944,VALID,-0.0339617,VALID,19.4108,VALID,281,VALID,0,
2009-04-16, 02:38:00,VALID,917.16,VALID,0,VALID,99.9354,VALID,-0.0339617,VALID,19.44,VALID,229,VALID,0.0593378,
2009-04-16, 02:39:01,VALID,917.142,VALID,0,VALID,99.8032,VALID,-0.101885,VALID,19.4859,VALID,215,VALID,0,
2009-04-16, 02:40:00,VALID,917.131,VALID,0,VALID,99.6862,VALID,-0.0679233,VALID,19.5411,VALID,11,VALID,0.043968,
2009-04-16, 02:41:00,VALID,917.105,VALID,0,VALID,99.5933,VALID,-0.0679233,VALID,19.57,VALID,29,VALID,0.0013587,
2009-04-16, 02:42:01,VALID,917.115,VALID,0,VALID,99.4522,VALID,-0.0509425,VALID,19.57,VALID,25,VALID,0,
2009-04-16, 02:43:01,VALID,917.096,VALID,0,VALID,99.353,VALID,-0.101885,VALID,19.5503,VALID,9,VALID,0.0440848,
2009-04-16, 02:44:00,VALID,917.073,VALID,0,VALID,99.2678,VALID,-0.0509425,VALID,19.5343,VALID,22,VALID,0.195703,
2009-04-16, 02:45:00,VALID,917.068,VALID,0,VALID,99.2716,VALID,-0.0679233,VALID,19.5313,VALID,11,VALID,0.55957,
2009-04-16, 02:46:01,VALID,917.049,VALID,0,VALID,99.2195,VALID,-0.101885,VALID,19.5506,VALID,21,VALID,0.0152439,
2009-04-16, 02:47:00,VALID,917.032,VALID,0,VALID,99.0949,VALID,-0.0679233,VALID,19.5665,VALID,22,VALID,0,
2009-04-16, 02:48:00,VALID,917.029,VALID,0,VALID,99.0415,VALID,-0.101885,VALID,19.5827,VALID,4,VALID,0.00111607,
2009-04-16, 02:49:00,VALID,917.016,VALID,0,VALID,99.0415,VALID,-0.0849042,VALID,19.5857,VALID,351,VALID,0.00114329,
2009-04-16, 02:50:01,VALID,917.01,VALID,0,VALID,99.1826,VALID,-0.0849042,VALID,19.6092,VALID,344,VALID,0,
2009-04-16, 02:51:00,VALID,916.993,VALID,0,VALID,99.1813,VALID,-0.0339617,VALID,19.5862,VALID,5,VALID,0,
2009-04-16, 02:52:00,VALID,916.995,VALID,0,VALID,99.1674,VALID,-0.0339617,VALID,19.5695,VALID,359,VALID,0.0659722,
2009-04-16, 02:53:00,VALID,916.989,VALID,0,VALID,99.2233,VALID,-0.0169808,VALID,19.5663,VALID,316,VALID,0.110618,
2009-04-16, 02:54:00,VALID,916.983,VALID,0,VALID,99.1928,VALID,-0.0339617,VALID,19.573,VALID,291,VALID,0.000762195,
2009-04-16, 02:55:00,VALID,916.991,VALID,0,VALID,99.2335,VALID,0,VALID,19.5857,VALID,261,VALID,0.000390625,
2009-04-16, 02:56:01,VALID,916.968,VALID,0,VALID,99.339,VALID,-0.0339617,VALID,19.5663,VALID,254,VALID,0,
2009-04-16, 02:57:00,VALID,916.954,VALID,0,VALID,99.4624,VALID,-0.0169808,VALID,19.5308,VALID,254,VALID,0,
2009-04-16, 02:58:01,VALID,916.935,VALID,0,VALID,99.6404,VALID,-0.0169808,VALID,19.4917,VALID,256,VALID,0,
2009-04-16, 02:59:00,VALID,916.92,VALID,0,VALID,99.7701,VALID,-0.0339617,VALID,19.4824,VALID,311,VALID,0,
2009-04-16, 03:00:00,VALID,916.927,VALID,0,VALID,99.9634,VALID,-0.0169808,VALID,19.4887,VALID,14,VALID,0,
2009-04-16, 03:01:00,VALID,916.941,VALID,0,VALID,99.972,VALID,-0.0509425,VALID,19.4692,VALID,14,VALID,0.0010016,
2009-04-16, 03:02:01,VALID,916.941,VALID,0,VALID,99.8896,VALID,-0.0169808,VALID,19.443,VALID,14,VALID,0.0664931,
2009-04-16, 03:03:01,VALID,916.954,VALID,0,VALID,99.8985,VALID,-0.0169808,VALID,19.4462,VALID,19,VALID,0.00114329,
2009-04-16, 03:04:00,VALID,916.951,VALID,0,VALID,99.9329,VALID,-0.0339617,VALID,19.463,VALID,3,VALID,0,
2009-04-16, 03:05:00,VALID,916.944,VALID,0,VALID,99.8616,VALID,-0.0169808,VALID,19.456,VALID,307,VALID,0,
2009-04-16, 03:06:00,VALID,916.923,VALID,0,VALID,99.9644,VALID,-0.0339617,VALID,19.4432,VALID,314,VALID,0,
2009-04-16, 03:07:01,VALID,916.902,VALID,0,VALID,99.9654,VALID,-0.101885,VALID,19.4347,VALID,359,VALID,0.0457589,
2009-04-16, 03:08:01,VALID,916.903,VALID,0,VALID,99.9062,VALID,-0.118866,VALID,19.4475,VALID,318,VALID,0.0264863,
2009-04-16, 03:09:01,VALID,916.896,VALID,0,VALID,100,VALID,-0.101885,VALID,19.4704,VALID,252,VALID,0,
2009-04-16, 03:10:01,VALID,916.894,VALID,0,VALID,100,VALID,-0.0679233,VALID,19.438,VALID,251,VALID,0,
2009-04-16, 03:11:01,VALID,916.902,VALID,0,VALID,100,VALID,-0.101885,VALID,19.3796,VALID,251,VALID,0,
2009-04-16, 03:12:01,VALID,916.884,VALID,0,VALID,100,VALID,-0.101885,VALID,19.3274,VALID,276,VALID,0,
2009-04-16, 03:13:01,VALID,916.89,VALID,0,VALID,100,VALID,-0.0849042,VALID,19.2952,VALID,296,VALID,0,
2009-04-16, 03:14:01,VALID,916.884,VALID,0,VALID,100,VALID,-0.135847,VALID,19.2693,VALID,295,VALID,0,
2009-04-16, 03:15:01,VALID,916.866,VALID,0,VALID,100,VALID,-0.101885,VALID,19.2468,VALID,295,VALID,0,
2009-04-16, 03:16:01,VALID,916.842,VALID,0,VALID,100,VALID,-0.118866,VALID,19.2371,VALID,297,VALID,0,
2009-04-16, 03:17:00,VALID,916.827,VALID,0,VALID,100,VALID,-0.101885,VALID,19.2206,VALID,352,VALID,0.0695503,
2009-04-16, 03:18:00,VALID,916.847,VALID,0,VALID,100,VALID,-0.118866,VALID,19.2306,VALID,16,VALID,0,
2009-04-16, 03:19:00,VALID,916.848,VALID,0,VALID,100,VALID,-0.135847,VALID,19.2336,VALID,5,VALID,0,
2009-04-16, 03:20:00,VALID,916.854,VALID,0,VALID,100,VALID,-0.118866,VALID,19.2468,VALID,356,VALID,0,
2009-04-16, 03:21:00,VALID,916.892,VALID,0,VALID,100,VALID,-0.135847,VALID,19.2563,VALID,7,VALID,0,
2009-04-16, 03:22:00,VALID,916.914,VALID,0,VALID,100,VALID,-0.0509425,VALID,19.2516,VALID,353,VALID,0,
2009-04-16, 03:23:00,VALID,916.934,VALID,0,VALID,100,VALID,-0.0169808,VALID,19.2418,VALID,279,VALID,0,
2009-04-16, 03:24:00,VALID,916.938,VALID,0,VALID,100,VALID,0,VALID,19.2391,VALID,282,VALID,0,
2009-04-16, 03:25:00,VALID,916.93,VALID,0,VALID,100,VALID,-0.0169808,VALID,19.1937,VALID,330,VALID,0,
2009-04-16, 03:26:00,VALID,916.925,VALID,0,VALID,100,VALID,-0.0339617,VALID,19.1999,VALID,10,VALID,0,
2009-04-16, 03:27:00,VALID,916.919,VALID,0,VALID,100,VALID,-0.0849042,VALID,19.2196,VALID,10,VALID,0,
2009-04-16, 03:28:00,VALID,916.921,VALID,0,VALID,100,VALID,-0.0849042,VALID,19.2161,VALID,9,VALID,0,
2009-04-16, 03:29:00,VALID,916.921,VALID,0,VALID,100,VALID,-0.0849042,VALID,19.2027,VALID,9,VALID,0,
2009-04-16, 03:30:00,VALID,916.92,VALID,0,VALID,100,VALID,-0.0679233,VALID,19.2324,VALID,9,VALID,0,
2009-04-16, 03:31:00,VALID,916.914,VALID,0,VALID,100,VALID,-0.0169808,VALID,19.2581,VALID,9,VALID,0,
2009-04-16, 03:32:00,VALID,916.908,VALID,0,VALID,100,VALID,-0.0679233,VALID,19.2715,VALID,9,VALID,0,
2009-04-16, 03:33:00,VALID,916.882,VALID,0,VALID,100,VALID,-0.0169808,VALID,19.2778,VALID,10,VALID,0,
2009-04-16, 03:34:00,VALID,916.86,VALID,0,VALID,100,VALID,-0.0339617,VALID,19.2715,VALID,10,VALID,0,
2009-04-16, 03:35:00,VALID,916.855,VALID,0,VALID,100,VALID,-0.0509425,VALID,19.265,VALID,10,VALID,0,
2009-04-16, 03:36:00,VALID,916.858,VALID,0,VALID,100,VALID,-0.0339617,VALID,19.278,VALID,10,VALID,0,
2009-04-16, 03:37:00,VALID,916.858,VALID,0,VALID,100,VALID,-0.0339617,VALID,19.2843,VALID,7,VALID,0,
2009-04-16, 03:38:00,VALID,916.845,VALID,0,VALID,100,VALID,-0.0339617,VALID,19.2938,VALID,356,VALID,0.112995,
2009-04-16, 03:39:00,VALID,916.831,VALID,0,VALID,100,VALID,0,VALID,19.297,VALID,354,VALID,0.166969,
2009-04-16, 03:40:00,VALID,916.839,VALID,0,VALID,100,VALID,-0.0169808,VALID,19.3262,VALID,3,VALID,0.238086,
2009-04-16, 03:41:00,VALID,916.845,VALID,0,VALID,100,VALID,-0.0169808,VALID,19.3489,VALID,12,VALID,0.0608648,
2009-04-16, 03:42:00,VALID,916.841,VALID,0,VALID,99.896,VALID,-0.0169808,VALID,19.3848,VALID,8,VALID,0,
2009-04-16, 03:43:00,VALID,916.851,VALID,0,VALID,99.7854,VALID,-0.0849042,VALID,19.417,VALID,16,VALID,0,
2009-04-16, 03:44:00,VALID,916.854,VALID,0,VALID,99.6099,VALID,-0.0679233,VALID,19.43,VALID,358,VALID,0,
2009-04-16, 03:45:00,VALID,916.846,VALID,0,VALID,99.4853,VALID,-0.0339617,VALID,19.4365,VALID,359,VALID,0,
2009-04-16, 03:46:00,VALID,916.829,VALID,0,VALID,99.3772,VALID,-0.0509425,VALID,19.45,VALID,360,VALID,0,